[Date Prev][Date Next][Thread Prev][Thread Next] - [Date Index][Thread Index][Author Index]
2 Line ISS Keps 4-26
- Subject: [sarex] 2 Line ISS Keps 4-26
- From: "Dave Larsen PhD" <doc@xxxxxxxxxxx>
- Date: Fri, 26 Apr 2002 03:16:49 -0700
ISS
1 25544U 98067A 02116.11898148 .00042272 00000-0 55478-3 0 3533
2 25544 51.6376 314.6001 0006974 6.7040 134.6827 15.58077565195902
----
Via the sarex mailing list at AMSAT.ORG courtesy of AMSAT-NA.
To unsubscribe, send "unsubscribe sarex" to Majordomo@amsat.org
AMSAT Home